Location: NJAA Observatory
(40.6819°N, 74.8979°W)
Time: 11:21:30
(UTC-05:00)

Courier 1B - All Passes

Search period start: 24 February 2018 00:00
Search period end: 06 March 2018 00:00
Orbit: 963 x 1209 km, 28.3° (Epoch: 24 February)

Date Brightness Start Highest point End Pass type
(mag) Time Alt. Az. Time Alt. Az. Time Alt. Az.
24 Feb - 00:52:31 10° WSW 00:59:00 29° S 01:05:28 10° SE night (unlit)
24 Feb - 02:47:55 10° WSW 02:52:17 16° SSW 02:56:35 10° S night (unlit)
24 Feb - 20:13:36 10° SSW 20:18:26 18° SSE 20:23:25 10° ESE visible
24 Feb - 22:05:15 10° SW 22:11:44 31° S 22:18:22 10° ESE visible
24 Feb - 23:58:37 10° WSW 00:05:16 31° S 00:11:57 10° SE night (unlit)
25 Feb - 01:53:20 10° WSW 01:58:38 20° SSW 02:03:54 10° SSE night (unlit)
25 Feb - 19:21:12 10° S 19:24:52 14° SSE 19:28:38 10° ESE visible
25 Feb - 21:11:52 10° SW 21:18:01 28° SSE 21:24:22 10° ESE visible
25 Feb - 23:04:52 10° WSW 23:11:30 32° S 23:18:17 10° ESE night (unlit)
26 Feb - 00:59:05 10° WSW 01:04:58 23° SSW 01:10:51 10° SSE night (unlit)
26 Feb - 18:30:12 10° SSE 18:31:21 10° SSE 18:32:29 10° SE visible
26 Feb - 20:18:39 10° SW 20:24:21 24° SSE 20:30:17 10° ESE visible
26 Feb - 22:11:12 10° WSW 22:17:46 32° S 22:24:30 10° ESE visible
27 Feb - 00:05:02 10° WSW 00:11:15 27° SSW 00:17:33 10° SE night (unlit)
27 Feb - 02:01:07 10° SW 02:04:29 13° SSW 02:07:51 10° S night (unlit)
27 Feb - 19:25:40 10° SSW 19:30:44 21° SSE 19:36:01 10° ESE visible
27 Feb - 21:17:40 10° SW 21:24:02 31° S 21:30:39 10° ESE visible
27 Feb - 23:11:09 10° WSW 23:17:32 29° S 23:24:03 10° SE night (unlit)
28 Feb - 01:06:13 10° WSW 01:10:51 17° SSW 01:15:31 10° SSE night (unlit)
28 Feb - 18:33:00 10° SSW 18:37:11 17° SSE 18:41:30 10° ESE visible
28 Feb - 20:24:16 10° SW 20:30:21 29° S 20:36:42 10° ESE visible
28 Feb - 22:17:24 10° WSW 22:23:48 31° S 22:30:26 10° SE visible
01 Mar - 00:11:50 10° WSW 00:17:12 20° SSW 00:22:38 10° SSE night (unlit)
01 Mar - 17:40:57 10° S 17:43:40 12° SSE 17:46:27 10° SE daylight
01 Mar - 19:31:00 10° SW 19:36:42 26° SSE 19:42:40 10° ESE visible
01 Mar - 21:23:45 10° WSW 21:30:05 32° S 21:36:41 10° ESE visible
01 Mar - 23:17:44 10° WSW 23:23:31 24° SSW 23:29:26 10° SSE night (unlit)
02 Mar - 01:15:42 10° SW 01:16:42 10° SSW 01:17:43 10° SSW night (unlit)
02 Mar - 18:37:55 10° SSW 18:43:06 22° SSE 18:48:31 10° ESE visible
02 Mar - 20:30:13 10° WSW 20:36:23 31° S 20:42:52 10° ESE visible
02 Mar - 22:23:50 10° WSW 22:29:49 27° SSW 22:36:02 10° SE visible
03 Mar - 00:19:31 10° SW 00:23:05 14° SSW 00:26:42 10° S night (unlit)
03 Mar - 17:45:04 10° SSW 17:49:33 18° SSE 17:54:13 10° ESE daylight
03 Mar - 19:36:48 10° SW 19:42:44 30° S 19:48:58 10° ESE visible
03 Mar - 21:30:04 10° WSW 21:36:09 29° S 21:42:28 10° SE visible
03 Mar - 23:24:52 10° WSW 23:29:27 17° SSW 23:34:08 10° SSE night (unlit)
04 Mar - 16:52:37 10° S 16:56:04 15° SSE 16:59:37 10° SE daylight
04 Mar - 18:43:29 10° SW 18:49:07 27° S 18:55:00 10° ESE visible
04 Mar - 20:36:26 10° WSW 20:42:28 30° S 20:48:47 10° SE visible
04 Mar - 22:30:39 10° WSW 22:35:49 20° SSW 22:41:08 10° SSE visible
05 Mar - 16:01:12 10° SSE 16:02:37 11° SSE 16:04:01 10° SE daylight
05 Mar - 17:50:19 10° SW 17:55:32 24° SSE 18:00:59 10° ESE daylight
05 Mar - 19:42:54 10° WSW 19:48:48 30° S 19:55:02 10° ESE visible
05 Mar - 21:36:41 10° WSW 21:42:10 23° SSW 21:47:52 10° SE visible
05 Mar - 23:34:03 10° SW 23:35:21 10° SSW 23:36:38 10° SSW night (unlit)
